This is the latest recevied weather packets stored in our database for station/object W7BTL. If no packets are shown the sender has not sent any weather packets the latest 10 day(s).
| Time | Temp. | Humidity | Pressure | Rain* | Wind** | Luminosity | Snow |
|---|---|---|---|---|---|---|---|
| 1788549906 | 28.33° C | 50% | 1013.1 hPa | 0 mm | - | 982 W/m² | - |
| 1788549602 | 27.78° C | 52% | 1013 hPa | 0 mm | - | 978 W/m² | - |
| 1788549299 | 27.78° C | 50% | 1013.2 hPa | 0 mm | - | 966 W/m² | - |
| 1788548995 | 27.78° C | 49% | 1013.3 hPa | 0 mm | - | 959 W/m² | - |
| 1788548690 | 28.33° C | 48% | 1013.3 hPa | 0 mm | - | 957 W/m² | - |
| 1788548386 | 28.33° C | 50% | 1013.4 hPa | 0 mm | - | 956 W/m² | - |
| 1788548082 | 28.33° C | 51% | 1013.5 hPa | 0 mm | - | 940 W/m² | - |
| 1788547777 | 27.78° C | 50% | 1013.4 hPa | 0 mm | - | 936 W/m² | - |
| 1788547476 | 27.78° C | 51% | 1013.4 hPa | 0 mm | - | 294 W/m² | - |
| 1788547172 | 27.78° C | 51% | 1013.5 hPa | 0 mm | - | 902 W/m² | - |
| 1788546867 | 27.78° C | 49% | 1013.6 hPa | 0 mm | - | 590 W/m² | - |
| 1788546563 | 27.78° C | 49% | 1013.4 hPa | 0 mm | - | 905 W/m² | - |
| 1788546258 | 27.22° C | 51% | 1013.6 hPa | 0 mm | - | 896 W/m² | - |
| 1788545953 | 27.22° C | 52% | 1013.5 hPa | 0 mm | - | 884 W/m² | - |
| 1788545648 | 26.67° C | 55% | 1013.7 hPa | 0 mm | - | 867 W/m² | - |
| 1788545343 | 26.11° C | 56% | 1013.8 hPa | 0 mm | - | 866 W/m² | - |
| 1788545038 | 26.11° C | 55% | 1013.6 hPa | 0 mm | - | 840 W/m² | - |
| 1788544738 | 26.67° C | 54% | 1013.6 hPa | 0 mm | - | 824 W/m² | - |
| 1788544437 | 26.67° C | 56% | 1013.7 hPa | 0 mm | - | 829 W/m² | - |
| 1788544136 | 26.67° C | 54% | 1013.8 hPa | 0 mm | - | 818 W/m² | - |
| 1788543832 | 26.67° C | 55% | 1013.8 hPa | 0 mm | - | 804 W/m² | - |
| 1788543528 | 26.67° C | 53% | 1013.9 hPa | 0 mm | - | 769 W/m² | - |
| 1788543223 | 26.11° C | 55% | 1013.7 hPa | 0 mm | - | 757 W/m² | - |
| 1788542941 | 25.56° C | 58% | 1013.7 hPa | 0 mm | - | 748 W/m² | - |
| 1788542618 | 25.56° C | 58% | 1013.7 hPa | 0 mm | - | 726 W/m² | - |
* Rain latest hour (hover to see other rain measurements)
** Current wind speed in m/s (hover to see current wind gust speed)